Precipitable_Water
0.67 0.65 0.77 0.78 0.82 0.85 0.81 0.80 0.81 0.80 0.77 0.74 0.67 0.66 0.71 0.81 0.85 0.90 0.91 0.92 0.94 0.95 0.94 0.92 0.96 0.94 0.82 0.61 0.61 0.95 0.87 0.84 0.88 0.88 0.79 0.73 0.66 0.58 0.52 0.64 0.67 0.57 0.63 0.66 0.67 0.65 0.67
0.71 0.67 0.71 0.72 0.75 0.85 0.84 0.79 0.80 0.77 0.77 0.79 0.73 0.64 0.67 0.78 0.86 0.92 0.96 0.95 0.95 0.97 0.96 0.96 0.96 0.98 0.76 0.50 0.78 0.82 0.92 0.83 0.80 0.83 0.80 0.80 0.72 0.70 0.58 0.62 0.64 0.71 0.65 0.67 0.69 0.64 0.65
0.82 0.72 0.68 0.72 0.67 0.78 0.84 0.83 0.82 0.80 0.76 0.80 0.77 0.66 0.63 0.71 0.81 0.91 0.95 0.98 0.96 0.95 0.92 0.96 0.95 0.89 0.71 0.62 0.84 0.85 0.86 0.84 0.79 0.74 0.70 0.85 0.82 0.75 0.67 0.56 0.72 0.74 0.64 0.65 0.62 0.65 0.63
0.92 0.84 0.72 0.72 0.71 0.74 0.81 0.83 0.84 0.84 0.82 0.79 0.75 0.74 0.63 0.69 0.80 0.86 0.94 1.01 0.98 0.99 0.98 0.96 0.94 0.85 0.61 0.85 0.88 0.79 0.78 0.70 0.72 0.71 0.69 0.77 0.84 0.74 0.69 0.76 0.67 0.60 0.65 0.51 0.57 0.64 0.64
0.97 0.92 0.82 0.74 0.74 0.79 0.84 0.82 0.84 0.87 0.86 0.85 0.80 0.78 0.73 0.68 0.77 0.82 0.94 0.97 0.97 0.99 0.98 0.99 0.82 0.76 0.56 0.83 0.71 0.76 0.80 0.67 0.68 0.68 0.72 0.67 0.67 0.61 0.68 0.53 0.51 0.56 0.42 0.44 0.50 0.66 0.63
1.07 0.96 0.91 0.82 0.76 0.81 0.86 0.84 0.82 0.85 0.89 0.89 0.85 0.82 0.82 0.67 0.76 0.78 0.87 0.94 0.99 0.95 0.93 0.94 0.85 0.64 0.67 0.61 0.73 0.75 0.79 0.76 0.65 0.60 0.57 0.59 0.55 0.45 0.45 0.46 0.27 0.37 0.43 0.45 0.46 0.56 0.61
0.99 1.03 1.00 0.92 0.82 0.77 0.81 0.84 0.86 0.86 0.86 0.91 0.90 0.81 0.85 0.73 0.74 0.81 0.81 0.75 0.64 0.62 0.74 0.59 0.59 0.59 0.66 0.75 0.80 0.71 0.72 0.68 0.65 0.56 0.42 0.51 0.42 0.32 0.35 0.41 0.43 0.47 0.47 0.49 0.52 0.63 0.58
0.81 1.02 1.05 1.02 0.91 0.80 0.76 0.81 0.87 0.90 0.89 0.89 0.91 0.83 0.84 0.75 0.76 0.80 0.77 0.58 0.68 0.74 0.52 0.72 0.69 0.70 0.74 0.79 0.62 0.66 0.74 0.57 0.53 0.41 0.46 0.44 0.35 0.36 0.41 0.43 0.46 0.43 0.46 0.48 0.56 0.65 0.58
0.59 0.83 1.07 1.11 1.02 0.90 0.79 0.80 0.87 0.90 0.92 0.91 0.88 0.85 0.84 0.78 0.80 0.78 0.68 0.67 0.88 0.83 0.52 0.56 0.69 0.68 0.72 0.75 0.62 0.62 0.68 0.59 0.49 0.42 0.42 0.35 0.30 0.44 0.44 0.40 0.41 0.41 0.44 0.49 0.48 0.60 0.64
0.52 0.62 0.87 1.02 1.08 1.00 0.88 0.84 0.88 0.90 0.94 0.98 0.89 0.86 0.81 0.82 0.72 0.69 0.64 0.81 0.87 0.84 0.39 0.41 0.53 0.67 0.74 0.74 0.58 0.72 0.73 0.61 0.51 0.40 0.42 0.41 0.41 0.40 0.40 0.36 0.39 0.31 0.41 0.51 0.55 0.55 0.42
0.55 0.54 0.64 0.86 0.91 1.00 0.98 0.89 0.91 0.93 0.98 1.02 0.93 0.86 0.82 0.78 0.76 0.67 0.72 0.85 0.86 0.75 0.20 0.47 0.56 0.80 0.73 0.61 0.60 0.58 0.73 0.63 0.46 0.42 0.43 0.36 0.36 0.35 0.33 0.34 0.38 0.30 0.43 0.47 0.55 0.62 0.53
0.60 0.62 0.53 0.70 0.91 1.00 1.02 0.96 0.93 0.97 1.00 1.03 0.99 0.88 0.86 0.81 0.79 0.83 0.87 0.82 0.71 0.36 0.21 0.42 0.59 0.55 0.54 0.57 0.57 0.61 0.57 0.64 0.57 0.46 0.44 0.38 0.48 0.42 0.37 0.41 0.43 0.42 0.40 0.48 0.68 0.60 0.40
0.60 0.67 0.65 0.59 0.81 0.95 1.02 0.99 0.94 0.97 1.02 1.04 1.03 0.92 0.86 0.88 0.68 0.85 0.81 0.65 0.34 0.23 0.45 0.45 0.48 0.53 0.49 0.47 0.48 0.51 0.45 0.43 0.36 0.30 0.30 0.39 0.35 0.47 0.49 0.44 0.48 0.49 0.39 0.37 0.37 0.39 0.37
0.60 0.67 0.69 0.64 0.73 0.93 1.00 1.01 0.93 0.96 1.02 1.06 1.05 0.97 0.93 0.88 0.97 0.89 0.69 0.45 0.24 0.32 0.41 0.57 0.53 0.51 0.42 0.45 0.44 0.46 0.42 0.36 0.41 0.38 0.33 0.27 0.22 0.35 0.45 0.44 0.42 0.46 0.44 0.42 0.29 0.33 0.35
0.57 0.66 0.69 0.72 0.81 0.90 0.98 1.03 0.93 0.99 1.04 1.07 1.07 0.94 0.89 0.94 0.99 0.85 0.53 0.30 0.28 0.43 0.54 0.51 0.51 0.41 0.35 0.41 0.43 0.41 0.38 0.38 0.38 0.41 0.33 0.31 0.30 0.48 0.46 0.54 0.60 0.45 0.44 0.60 0.51 0.42 0.35
0.59 0.64 0.70 0.69 0.82 0.87 0.94 1.02 0.97 1.03 1.07 1.09 0.91 0.82 0.82 1.02 1.03 0.77 0.45 0.34 0.40 0.58 0.61 0.57 0.40 0.34 0.29 0.35 0.35 0.35 0.32 0.38 0.38 0.46 0.48 0.40 0.34 0.44 0.54 0.64 0.61 0.56 0.59 0.47 0.53 0.30 0.27
0.57 0.62 0.66 0.67 0.85 0.86 0.93 0.98 1.00 1.12 1.07 1.08 0.86 0.65 0.84 1.06 0.95 0.61 0.37 0.35 0.50 0.64 0.65 0.54 0.38 0.33 0.33 0.33 0.33 0.29 0.29 0.37 0.42 0.42 0.48 0.48 0.41 0.44 0.54 0.48 0.48 0.58 0.54 0.58 0.60 0.46 0.30
0.53 0.60 0.67 0.75 0.84 0.84 0.92 0.95 1.05 1.12 1.10 1.01 0.77 0.52 0.89 0.98 0.55 0.53 0.42 0.46 0.64 0.63 0.69 0.61 0.47 0.40 0.33 0.39 0.33 0.32 0.35 0.42 0.45 0.46 0.41 0.53 0.47 0.40 0.44 0.58 0.67 0.65 0.61 0.63 0.44 0.39 0.40
0.49 0.59 0.69 0.77 0.83 0.88 0.91 0.98 1.02 1.07 1.08 0.88 0.64 0.65 0.92 0.85 0.44 0.44 0.49 0.55 0.63 0.62 0.63 0.58 0.40 0.39 0.39 0.35 0.31 0.33 0.39 0.48 0.46 0.48 0.47 0.57 0.47 0.38 0.41 0.56 0.67 0.60 0.65 0.60 0.58 0.51 0.40
0.46 0.59 0.69 0.76 0.80 0.86 0.90 0.97 1.09 1.07 1.05 0.87 0.66 0.51 0.65 0.71 0.65 0.53 0.47 0.51 0.55 0.69 0.64 0.60 0.43 0.44 0.38 0.34 0.37 0.42 0.38 0.46 0.48 0.47 0.59 0.68 0.53 0.49 0.40 0.45 0.51 0.50 0.54 0.53 0.53 0.42 0.40
0.45 0.55 0.65 0.73 0.79 0.84 0.90 0.96 1.09 1.09 1.01 0.85 0.66 0.54 0.62 0.48 0.50 0.52 0.57 0.55 0.55 0.55 0.67 0.62 0.45 0.42 0.41 0.34 0.37 0.34 0.43 0.47 0.49 0.48 0.54 0.61 0.49 0.56 0.52 0.52 0.53 0.53 0.50 0.52 0.47 0.49 0.40
0.40 0.52 0.64 0.71 0.78 0.81 0.87 0.91 0.97 1.08 1.01 0.80 0.60 0.56 0.67 0.61 0.59 0.52 0.50 0.49 0.56 0.59 0.61 0.54 0.45 0.51 0.50 0.38 0.37 0.34 0.39 0.46 0.43 0.54 0.50 0.62 0.50 0.53 0.46 0.52 0.53 0.48 0.52 0.50 0.50 0.49 0.47
0.36 0.46 0.62 0.68 0.76 0.80 0.85 0.92 0.97 1.05 0.97 0.76 0.79 0.77 0.68 0.58 0.54 0.47 0.45 0.50 0.59 0.65 0.67 0.67 0.59 0.53 0.51 0.50 0.57 0.52 0.51 0.50 0.56 0.49 0.51 0.52 0.50 0.46 0.38 0.45 0.45 0.38 0.45 0.47 0.48 0.51 0.49
0.35 0.42 0.57 0.66 0.72 0.78 0.82 0.90 0.96 1.01 0.98 0.87 0.82 0.78 0.63 0.49 0.49 0.43 0.48 0.52 0.61 0.66 0.62 0.69 0.68 0.61 0.67 0.72 0.73 0.65 0.61 0.55 0.56 0.58 0.57 0.48 0.48 0.50 0.38 0.40 0.26 0.40 0.49 0.48 0.46 0.48 0.51
0.37 0.43 0.53 0.63 0.68 0.79 0.81 0.88 0.90 0.90 0.98 0.89 0.88 0.79 0.67 0.51 0.57 0.45 0.41 0.54 0.65 0.71 0.69 0.69 0.75 0.76 0.81 0.68 0.57 0.47 0.52 0.50 0.51 0.57 0.59 0.61 0.51 0.43 0.37 0.35 0.42 0.44 0.44 0.44 0.41 0.41 0.51
0.36 0.41 0.51 0.60 0.68 0.76 0.81 0.87 0.92 0.95 0.96 0.93 0.89 0.92 0.75 0.57 0.55 0.52 0.44 0.62 0.60 0.63 0.65 0.70 0.80 0.82 0.78 0.65 0.54 0.40 0.36 0.43 0.42 0.51 0.64 0.61 0.59 0.49 0.42 0.33 0.30 0.41 0.44 0.50 0.51 0.35 0.51
0.36 0.39 0.50 0.61 0.67 0.73 0.78 0.86 0.89 0.93 0.97 0.93 0.88 0.95 0.80 0.60 0.69 0.60 0.48 0.59 0.72 0.69 0.64 0.69 0.71 0.71 0.77 0.57 0.48 0.43 0.41 0.51 0.40 0.40 0.46 0.51 0.51 0.44 0.43 0.39 0.42 0.51 0.51 0.50 0.34 0.38 0.49
0.34 0.40 0.47 0.59 0.66 0.71 0.77 0.86 0.90 0.94 0.96 0.92 0.86 0.96 0.81 0.66 0.71 0.68 0.62 0.66 0.71 0.73 0.62 0.69 0.66 0.68 0.64 0.52 0.50 0.49 0.46 0.51 0.49 0.52 0.50 0.47 0.45 0.43 0.46 0.39 0.34 0.59 0.55 0.42 0.50 0.54 0.53
0.33 0.40 0.49 0.59 0.67 0.73 0.78 0.84 0.92 0.93 0.97 0.95 0.79 0.94 0.96 0.75 0.74 0.79 0.73 0.85 0.84 0.86 0.77 0.76 0.71 0.70 0.69 0.57 0.55 0.55 0.48 0.51 0.51 0.43 0.60 0.46 0.52 0.47 0.48 0.44 0.59 0.62 0.61 0.62 0.63 0.57 0.59
Wind_Speed
28 28 28 28 28 27 26 24 24 23 22 21 21 21 20 19 18 18 18 18 18 19 19 20 21 21 22 26 28 24 23 20 20 24 29 29 28 28 31 28 32 35 32 33 31 30 31
29 29 29 30 30 29 28 26 25 24 24 23 22 22 21 20 19 19 19 19 19 19 19 20 21 22 24 28 26 29 27 26 23 22 26 29 28 29 31 32 33 29 35 33 31 31 31
32 31 31 31 31 31 30 29 28 26 25 25 24 23 22 22 21 20 19 19 19 19 20 21 22 23 27 26 23 25 29 28 27 25 24 25 31 29 25 31 30 35 31 32 36 33 30
33 34 34 33 33 32 32 31 30 28 26 25 25 24 23 23 22 21 21 20 20 20 20 21 21 23 26 25 30 26 26 28 30 31 31 29 26 31 33 27 28 30 31 32 33 33 34
34 35 35 35 35 34 33 33 32 30 29 27 26 25 24 23 23 22 21 21 21 21 21 21 21 23 25 23 28 29 28 26 25 26 27 31 31 30 29 31 27 31 32 37 32 33 32
37 37 36 36 36 36 36 34 33 32 31 29 27 26 24 24 23 22 21 21 21 23 22 22 23 22 25 23 23 26 29 29 28 28 28 28 28 31 32 32 36 32 32 32 34 34 32
40 41 39 39 38 38 37 37 35 33 32 31 28 27 25 24 23 22 21 21 22 22 24 22 21 22 21 23 21 24 25 27 29 30 30 29 29 35 36 37 35 33 35 32 32 32 33
43 41 43 42 41 39 38 37 35 34 32 30 29 27 25 24 23 22 22 21 22 22 26 28 29 28 30 24 24 25 25 26 28 30 29 31 35 37 34 34 34 36 34 33 32 30 34
45 44 40 42 43 42 40 37 35 34 32 30 28 27 25 23 23 22 22 22 22 23 26 26 29 32 27 28 28 26 27 27 28 31 32 34 36 31 33 35 35 36 37 32 31 30 28
46 46 46 42 41 42 41 39 36 34 32 30 28 26 25 22 21 22 22 22 22 22 24 24 23 23 27 24 28 29 28 28 28 31 30 33 36 36 35 37 36 37 36 35 32 32 27
45 46 47 47 44 43 43 41 37 34 32 30 28 26 25 23 19 18 18 17 17 17 20 15 17 18 18 22 20 22 29 28 28 28 25 27 30 35 40 40 39 39 34 38 36 22 24
42 41 42 44 41 39 41 41 38 34 32 29 27 26 24 23 21 17 16 14 15 15 20 16 16 17 16 19 21 20 23 24 24 26 28 29 27 30 33 40 40 37 35 33 27 28 25
38 36 36 38 38 34 34 39 38 34 32 29 27 25 23 20 20 18 15 14 14 17 15 16 16 17 20 19 20 18 20 24 19 18 21 20 27 26 21 23 36 40 34 27 23 22 16
34 32 30 30 34 32 32 34 36 34 32 29 27 25 23 21 17 16 14 14 17 17 17 16 17 18 18 17 16 20 16 20 22 18 10 18 19 27 26 27 29 39 39 19 18 19 18
30 27 25 22 28 25 27 31 34 33 31 29 26 25 21 21 19 16 14 15 15 15 14 15 14 16 14 11 10 16 18 14 16 22 14 10 16 16 25 29 29 29 35 32 10 16 15
26 24 20 19 24 24 22 26 31 31 30 28 26 24 22 21 19 16 16 18 15 15 12 14 13 10 6 8 10 13 15 11 18 20 20 12 9 16 20 25 34 28 30 25 16 17 15
23 21 17 18 23 21 22 24 30 30 31 29 24 22 20 21 19 17 17 16 16 17 12 11 11 7 8 5 11 13 11 13 13 18 18 13 13 12 20 28 30 24 21 25 12 15 16
20 16 11 10 18 20 21 24 28 28 30 28 24 20 20 20 17 16 16 14 13 13 12 12 10 10 6 7 12 13 12 9 14 18 17 15 9 12 18 21 25 23 25 26 12 11 10
17 13 11 10 10 15 17 20 29 32 31 28 24 19 20 20 15 16 15 14 14 11 10 7 7 6 5 6 9 14 13 11 15 17 17 13 8 10 9 19 23 24 22 16 11 11 12
15 11 9 9 11 13 14 17 29 33 31 28 23 20 18 20 16 15 16 14 12 14 14 12 10 10 7 8 12 6 11 12 15 18 15 10 8 8 7 16 22 21 19 16 15 11 10
14 12 11 9 10 15 12 15 23 31 32 28 24 20 18 15 17 18 13 11 10 9 11 10 8 11 9 9 11 12 13 12 13 17 15 7 2 3 5 20 22 20 17 18 16 15 10
15 13 12 9 9 15 14 18 13 30 32 28 22 20 18 14 17 18 18 15 14 11 9 10 13 10 15 13 12 15 13 12 12 15 17 10 2 2 9 9 16 17 17 18 18 16 15
15 14 12 10 10 13 15 13 12 28 31 26 23 20 16 14 15 14 14 15 13 13 13 19 14 15 13 16 12 14 16 17 12 15 16 13 7 3 6 7 7 9 17 19 17 17 18
14 16 13 12 12 14 15 13 12 26 29 25 23 19 17 15 15 14 15 15 16 15 16 15 19 18 11 11 12 12 10 12 12 12 14 15 11 6 6 7 8 9 9 16 19 17 18
13 16 16 15 14 17 17 14 16 22 29 24 23 20 17 15 13 13 14 11 12 14 13 19 16 15 12 11 11 13 12 12 12 10 10 16 14 8 8 9 8 9 9 11 16 16 18
15 17 18 17 16 18 15 19 17 20 27 25 23 21 17 14 12 9 9 8 11 9 10 17 19 15 17 14 13 13 13 13 14 12 12 14 15 10 8 9 9 7 7 9 10 12 13
15 17 18 17 18 19 19 18 20 23 27 25 21 22 18 16 15 12 10 8 7 6 5 13 18 18 16 16 15 13 13 14 13 15 15 15 14 15 12 9 9 8 7 7 8 9 9
16 18 17 18 18 19 20 18 18 21 27 25 21 22 19 16 15 11 10 9 7 8 7 12 14 14 18 18 15 14 12 14 12 13 16 15 14 13 12 11 11 9 8 8 8 8 8
16 19 19 19 19 20 23 21 19 22 26 25 20 21 20 17 13 10 11 10 9 10 8 13 13 18 16 16 16 15 13 13 11 12 16 15 16 13 14 12 9 8 10 9 9 9 9
Wind_Direction
277 273 270 267 265 266 267 268 267 269 269 270 270 270 271 275 279 282 285 285 285 285 283 277 270 265 259 253 253 256 261 265 263 253 247 247 246 245 244 244 240 241 243 242 242 244 246
276 273 271 267 264 264 264 265 267 268 267 268 269 269 268 272 276 280 283 284 284 284 283 280 272 265 262 258 261 255 259 260 263 258 248 245 246 245 249 244 243 244 242 246 245 243 241
276 273 271 268 265 263 263 262 264 265 266 265 267 268 267 268 272 278 281 283 284 283 282 282 275 267 262 260 263 258 257 258 258 256 255 247 245 247 245 246 247 240 245 242 241 241 240
278 273 270 268 265 263 262 261 261 262 263 264 265 266 266 266 269 275 279 280 283 284 282 283 279 271 266 265 259 262 259 260 256 255 253 252 252 247 245 248 246 240 235 241 237 236 237
279 276 270 267 264 263 261 260 259 259 260 261 263 264 265 265 268 272 276 279 280 283 283 282 281 274 272 270 259 257 256 256 256 256 254 249 247 245 243 240 241 232 234 233 237 234 233
280 275 272 268 264 261 260 259 258 257 257 258 260 261 262 265 266 270 273 278 282 281 278 282 279 280 271 268 266 259 254 253 256 257 256 247 243 241 236 230 232 230 230 233 231 230 232
280 274 271 268 264 262 260 257 256 256 255 255 257 258 259 263 263 266 271 278 283 282 273 272 278 274 280 272 270 261 254 252 253 253 249 244 239 236 233 231 234 238 235 232 235 229 231
281 279 268 267 263 260 259 256 253 252 253 252 254 253 256 260 262 264 268 276 280 285 284 270 273 270 269 278 267 260 254 250 247 248 243 241 240 237 234 232 230 230 234 236 233 231 227
279 274 273 267 261 257 256 253 251 249 249 249 250 250 252 256 260 263 265 272 280 287 283 280 272 272 268 262 265 261 249 248 248 245 240 238 242 236 234 231 230 226 228 231 230 231 230
283 273 267 265 261 255 252 249 248 247 246 246 246 246 247 251 260 263 266 272 278 287 287 286 285 282 259 266 270 257 252 247 249 246 242 246 243 237 233 231 228 228 225 231 231 228 219
288 278 268 262 262 256 249 244 243 242 242 241 243 241 242 243 258 262 270 271 277 287 289 293 289 288 279 258 279 262 247 240 243 243 238 243 239 236 232 231 224 228 225 228 232 222 216
293 283 273 260 254 254 247 239 237 237 236 236 237 237 238 244 254 261 261 268 281 286 282 286 292 286 276 266 267 274 230 234 243 245 242 245 242 237 233 227 226 225 219 222 228 218 222
298 290 277 259 248 250 246 235 231 231 230 230 231 233 234 240 250 247 255 266 281 277 292 289 291 287 276 271 260 246 225 226 234 239 234 233 233 224 215 216 213 208 202 215 220 205 212
300 298 283 259 241 243 240 234 226 226 225 225 227 227 231 238 239 237 248 268 275 282 279 295 295 288 282 274 256 228 229 228 232 229 230 222 221 215 207 203 198 197 194 202 205 210 196
303 299 287 261 231 239 238 228 220 220 219 220 222 222 228 234 231 236 250 266 279 288 288 292 298 293 287 262 244 220 223 227 220 212 213 213 208 188 191 200 195 191 197 210 225 188 189
303 300 293 251 230 238 240 222 215 214 213 213 214 219 228 228 227 236 255 265 274 285 287 294 290 283 275 224 224 217 213 216 222 220 204 203 217 198 198 193 194 198 200 202 207 199 185
305 301 292 261 228 234 231 219 211 213 208 207 213 219 226 221 223 240 254 263 274 274 276 294 286 273 262 218 213 200 199 225 206 196 185 190 201 182 185 189 193 196 195 200 203 181 181
305 302 290 257 235 232 222 217 213 201 201 204 209 218 213 210 227 243 253 258 272 276 265 289 279 272 241 215 194 193 215 202 176 168 175 170 177 192 198 195 193 191 188 187 196 177 177
303 291 285 272 237 219 216 221 212 202 200 202 206 214 212 214 234 240 252 255 262 279 268 266 253 241 236 201 190 198 204 183 164 167 166 175 185 176 196 184 183 189 187 193 199 189 186
294 288 281 275 236 212 224 221 201 199 200 200 206 208 215 222 238 242 242 251 261 263 260 250 244 234 216 205 193 167 199 186 177 179 168 166 186 209 204 179 174 187 195 200 202 197 199
281 273 272 262 239 214 222 205 201 198 198 200 206 214 214 219 230 238 240 249 254 270 240 215 223 220 207 195 196 204 196 186 180 186 182 187 203 155 146 161 177 182 187 207 208 206 204
278 265 259 248 238 220 222 207 215 198 197 202 206 211 214 229 228 232 240 243 251 254 253 231 218 208 210 203 196 197 189 198 185 187 185 191 162 179 123 135 172 189 195 202 208 212 223
272 247 246 249 239 216 206 210 210 195 196 202 206 213 217 225 230 236 241 242 249 246 260 234 226 215 220 208 209 206 199 196 188 191 193 189 195 190 169 181 175 208 209 210 218 224 222
266 240 245 248 231 221 213 211 212 198 201 204 208 210 216 228 235 241 243 242 241 253 255 224 215 204 206 192 195 180 182 184 191 194 198 200 204 219 213 197 211 217 220 221 219 224 224
267 243 241 242 241 220 216 216 218 208 201 206 208 210 217 226 238 252 257 238 256 270 249 214 204 197 197 190 188 187 190 198 206 210 216 203 204 220 213 225 242 212 229 223 218 228 228
268 246 235 245 236 225 223 221 215 206 202 205 209 211 215 220 235 249 258 244 272 251 242 208 206 206 197 201 194 192 195 199 208 217 216 205 204 217 227 222 226 221 234 234 220 232 238
266 241 236 237 232 224 223 218 219 213 204 206 210 211 215 223 238 247 245 244 262 237 220 194 194 200 199 203 199 199 200 197 203 205 204 203 208 215 222 232 243 218 217 218 204 225 231
259 239 235 232 231 227 216 214 215 208 203 205 210 209 213 221 232 239 234 240 248 224 209 194 188 201 196 202 201 208 202 204 203 204 204 206 205 214 215 224 239 210 220 219 216 216 218
255 238 236 233 232 224 212 215 211 204 204 205 209 209 214 221 228 236 235 237 240 220 216 197 206 192 196 198 207 210 209 204 207 211 207 212 215 212 217 223 221 226 228 223 225 224 228